Location: Ełk
(53.8214°N, 22.3622°E)
Time: 23:10:32
(UTC+01:00)

ISS - Pass Details

Date: 24 January 2019
Orbit: 403 x 411 km, 51.6° (Epoch: 16 February)

Event Time Altitude Azimuth Distance (km) Brightness Sun altitude
Rises 17:45:39 0° 203° (SSW) 2,326 0.5 -15.8°
Reaches altitude 10° 17:48:26 10° 177° (S) 1,472 -0.9 -16.2°
Enters shadow 17:50:01 14° 149° (SSE) 1,255 -1.6 -16.4°
